When you browse on this site, cookies collect data to enhance your experience and personalize the content and advertising you see.
Visit our Privacy Policy to learn more. By continuing to use the site, you agree to this use of cookies and data.
  • In United Kingdom
  • List of Countries
  • For 7 days
  • Water Temperature
  • Satellite Maps
  • Weather Map
  • Weather Widgets
  • user-avatar
    Login

    Hourly Weather Kasama

    Today, 22 March, Friday

    Time Temperature Precipitation Wind Pressure Humidity
    00:00 +35°C° 0 mm 2 mps 719 mmHg 9%
    01:00 +35°C° 0 mm 2 mps 719 mmHg 9%
    02:00 +34°C° 0 mm 2 mps 719 mmHg 9%
    03:00 +34°C° 0 mm 2 mps 719 mmHg 9%
    04:00 +32°C° 0 mm 2 mps 719 mmHg 9%
    05:00 +32°C° 0 mm 2 mps 719 mmHg 9%
    06:00 +34°C° 0 mm 3 mps 719 mmHg 8%
    07:00 +36°C° 0 mm 4 mps 720 mmHg 8%
    08:00 +37°C° 0 mm 5 mps 721 mmHg 7%
    09:00 +40°C° 0 mm 5 mps 721 mmHg 7%
    10:00 +42°C° 0 mm 5 mps 721 mmHg 7%
    11:00 +45°C° 0 mm 5 mps 721 mmHg 6%
    12:00 +46°C° 0 mm 5 mps 720 mmHg 6%
    13:00 +47°C° 0 mm 4 mps 719 mmHg 6%
    14:00 +47°C° 0 mm 3 mps 718 mmHg 6%
    15:00 +47°C° 0 mm 3 mps 718 mmHg 6%
    16:00 +46°C° 0 mm 3 mps 717 mmHg 6%
    17:00 +46°C° 0 mm 3 mps 717 mmHg 7%
    18:00 +43°C° 0 mm 2 mps 717 mmHg 7%
    19:00 +41°C° 0 mm 2 mps 717 mmHg 8%
    20:00 +40°C° 0 mm 2 mps 717 mmHg 9%
    21:00 +39°C° 0 mm 2 mps 718 mmHg 9%
    22:00 +38°C° 0 mm 2 mps 718 mmHg 9%
    23:00 +38°C° 0 mm 2 mps 718 mmHg 10%

    Tomorrow, 23 March, Saturday

    Time Temperature Precipitation Wind Pressure Humidity
    00:00 +37°C° 0 mm 2 mps 718 mmHg 10%
    01:00 +37°C° 0 mm 2 mps 718 mmHg 10%
    02:00 +36°C° 0 mm 2 mps 718 mmHg 10%
    03:00 +35°C° 0 mm 2 mps 718 mmHg 11%
    04:00 +35°C° 0 mm 2 mps 718 mmHg 11%
    05:00 +34°C° 0 mm 2 mps 718 mmHg 12%
    06:00 +35°C° 0 mm 3 mps 719 mmHg 11%
    07:00 +37°C° 0 mm 4 mps 719 mmHg 10%
    08:00 +39°C° 0 mm 5 mps 720 mmHg 9%
    09:00 +41°C° 0 mm 5 mps 720 mmHg 8%
    10:00 +45°C° 0 mm 5 mps 720 mmHg 7%
    11:00 +47°C° 0 mm 5 mps 720 mmHg 6%
    12:00 +47°C° 0 mm 5 mps 719 mmHg 5%
    13:00 +48°C° 0 mm 4 mps 719 mmHg 5%
    14:00 +48°C° 0 mm 3 mps 718 mmHg 5%
    15:00 +47°C° 0 mm 3 mps 717 mmHg 5%
    16:00 +47°C° 0 mm 3 mps 717 mmHg 5%
    17:00 +46°C° 0 mm 3 mps 717 mmHg 5%
    18:00 +45°C° 0 mm 3 mps 717 mmHg 6%
    19:00 +42°C° 0 mm 2 mps 718 mmHg 7%
    20:00 +40°C° 0 mm 2 mps 718 mmHg 7%
    21:00 +39°C° 0 mm 1 mps 718 mmHg 8%
    22:00 +39°C° 0 mm 1 mps 718 mmHg 8%
    23:00 +37°C° 0 mm 1 mps 718 mmHg 9%

    Day after tomorrow, 24 March, Sunday

    Time Temperature Precipitation Wind Pressure Humidity
    00:00 +36°C° 0 mm 1 mps 718 mmHg 10%
    01:00 +33°C° 0 mm 0 mps 717 mmHg 12%
    02:00 +32°C° 0 mm 0 mps 717 mmHg 13%
    03:00 +32°C° 0 mm 0 mps 717 mmHg 14%
    04:00 +34°C° 0 mm 1 mps 717 mmHg 14%
    05:00 +33°C° 0 mm 1 mps 717 mmHg 15%
    06:00 +35°C° 0 mm 1 mps 718 mmHg 13%
    07:00 +38°C° 0 mm 2 mps 718 mmHg 11%
    08:00 +40°C° 0 mm 3 mps 719 mmHg 8%
    09:00 +43°C° 0 mm 3 mps 719 mmHg 7%
    10:00 +44°C° 0 mm 3 mps 719 mmHg 7%
    11:00 +47°C° 0 mm 4 mps 719 mmHg 6%
    12:00 +47°C° 0 mm 3 mps 718 mmHg 5%
    13:00 +48°C° 0 mm 3 mps 717 mmHg 5%
    14:00 +48°C° 0 mm 2 mps 716 mmHg 5%
    15:00 +48°C° 0 mm 2 mps 716 mmHg 5%
    16:00 +47°C° 0 mm 2 mps 715 mmHg 5%
    17:00 +47°C° 0 mm 2 mps 715 mmHg 6%
    18:00 +45°C° 0 mm 2 mps 716 mmHg 6%
    19:00 +43°C° 0 mm 1 mps 716 mmHg 7%
    20:00 +41°C° 0 mm 1 mps 716 mmHg 7%
    21:00 +40°C° 0 mm 1 mps 717 mmHg 7%
    22:00 +40°C° 0 mm 1 mps 717 mmHg 8%
    23:00 +39°C° 0 mm 1 mps 717 mmHg 8%

    25 March, Monday

    Time Temperature Precipitation Wind Pressure Humidity
    00:00 +37°C° 0 mm 1 mps 716 mmHg 8%
    01:00 +36°C° 0 mm 1 mps 716 mmHg 8%
    02:00 +34°C° 0 mm 0 mps 715 mmHg 9%
    03:00 +33°C° 0 mm 0 mps 715 mmHg 10%
    04:00 +32°C° 0 mm 0 mps 716 mmHg 10%
    05:00 +31°C° 0 mm 0 mps 716 mmHg 11%
    06:00 +35°C° 0 mm 1 mps 717 mmHg 10%
    07:00 +38°C° 0 mm 2 mps 718 mmHg 8%
    08:00 +40°C° 0 mm 2 mps 719 mmHg 7%
    09:00 +42°C° 0 mm 2 mps 719 mmHg 7%
    10:00 +45°C° 0 mm 2 mps 719 mmHg 8%
    11:00 +46°C° 0 mm 1 mps 719 mmHg 8%
    12:00 +46°C° 0 mm 1 mps 719 mmHg 8%
    13:00 +47°C° 0 mm 1 mps 718 mmHg 8%
    14:00 +48°C° 0 mm 1 mps 717 mmHg 7%
    15:00 +47°C° 0 mm 1 mps 717 mmHg 8%
    16:00 +46°C° 0 mm 1 mps 716 mmHg 9%
    17:00 +45°C° 0 mm 1 mps 716 mmHg 9%
    18:00 +43°C° 0 mm 1 mps 717 mmHg 11%
    19:00 +42°C° 0 mm 1 mps 717 mmHg 13%
    20:00 +41°C° 0 mm 1 mps 717 mmHg 15%
    21:00 +40°C° 0 mm 1 mps 718 mmHg 19%
    22:00 +39°C° 0 mm 1 mps 718 mmHg 24%
    23:00 +37°C° 0 mm 1 mps 718 mmHg 28%

    26 March, Tuesday

    Time Temperature Precipitation Wind Pressure Humidity
    00:00 +36°C° 0 mm 1 mps 718 mmHg 27%
    01:00 +37°C° 0 mm 2 mps 717 mmHg 26%
    02:00 +36°C° 0 mm 2 mps 717 mmHg 24%
    03:00 +36°C° 0 mm 2 mps 718 mmHg 20%
    04:00 +35°C° 0 mm 2 mps 719 mmHg 16%
    05:00 +34°C° 0 mm 2 mps 719 mmHg 12%
    06:00 +35°C° 0 mm 3 mps 720 mmHg 12%
    07:00 +35°C° 0 mm 5 mps 721 mmHg 12%
    08:00 +36°C° 0 mm 6 mps 722 mmHg 11%
    09:00 +37°C° 0 mm 5 mps 722 mmHg 11%
    10:00 +39°C° 0 mm 5 mps 722 mmHg 10%
    11:00 +41°C° 0 mm 4 mps 722 mmHg 9%
    12:00 +42°C° 0 mm 3 mps 721 mmHg 8%
    13:00 +43°C° 0 mm 3 mps 720 mmHg 8%
    14:00 +43°C° 0 mm 2 mps 720 mmHg 7%
    15:00 +43°C° 0 mm 2 mps 719 mmHg 7%
    16:00 +42°C° 0 mm 2 mps 719 mmHg 8%
    17:00 +42°C° 0 mm 2 mps 719 mmHg 8%
    18:00 +41°C° 0 mm 2 mps 719 mmHg 8%
    19:00 +39°C° 0 mm 2 mps 720 mmHg 9%
    20:00 +38°C° 0 mm 2 mps 720 mmHg 9%
    21:00 +37°C° 0 mm 2 mps 720 mmHg 12%
    22:00 +35°C° 0 mm 1 mps 721 mmHg 15%
    23:00 +34°C° 0 mm 1 mps 721 mmHg 17%

    27 March, Wednesday

    Time Temperature Precipitation Wind Pressure Humidity
    00:00 +34°C° 0 mm 1 mps 721 mmHg 23%
    01:00 +33°C° 0 mm 1 mps 720 mmHg 29%
    02:00 +32°C° 0 mm 1 mps 720 mmHg 34%
    03:00 +31°C° 0 mm 1 mps 721 mmHg 29%
    04:00 +31°C° 0 mm 1 mps 721 mmHg 24%
    05:00 +30°C° 0 mm 1 mps 722 mmHg 19%
    06:00 +31°C° 0 mm 2 mps 722 mmHg 16%
    07:00 +33°C° 0 mm 3 mps 723 mmHg 13%
    08:00 +34°C° 0 mm 4 mps 724 mmHg 10%
    09:00 +36°C° 0 mm 4 mps 724 mmHg 8%
    10:00 +38°C° 0 mm 4 mps 723 mmHg 7%
    11:00 +40°C° 0 mm 4 mps 723 mmHg 6%
    12:00 +42°C° 0 mm 4 mps 722 mmHg 6%
    13:00 +43°C° 0 mm 3 mps 722 mmHg 6%
    14:00 +44°C° 0 mm 3 mps 721 mmHg 6%
    15:00 +44°C° 0 mm 3 mps 721 mmHg 6%
    16:00 +43°C° 0 mm 3 mps 720 mmHg 6%
    17:00 +43°C° 0 mm 3 mps 720 mmHg 6%
    18:00 +42°C° 0 mm 3 mps 721 mmHg 6%
    19:00 +39°C° 0 mm 2 mps 721 mmHg 7%
    20:00 +38°C° 0 mm 2 mps 721 mmHg 7%
    21:00 +37°C° 0 mm 2 mps 721 mmHg 8%
    22:00 +36°C° 0 mm 3 mps 722 mmHg 8%
    23:00 +36°C° 0 mm 3 mps 722 mmHg 8%
    Show more